#timestamp,LO_Frequency,Hit,StdDev 
1634248815.7,286047000.4,N
1634248835.5,286047000.3,N
1634248855.4,286047000.6,N
1634248875.2,286047002.8,N
1634248895.0,286047001.9,N
1634248895.9,286047001.9,N
1634248915.8,286047004.2,N
1634248935.6,286047004.0,N
1634248955.4,286047003.2,N
1634248975.3,286047003.4,N
1634248995.1,286047002.9,N
1634249015.9,286047004.3,N
1634249035.7,286047001.8,N
1634249055.5,286046999.7,N
1634249075.4,286046999.9,N
1634249095.2,286047000.0,N
1634249115.0,286047000.9,N
1634249116.0,286047000.9,N
1634249135.8,286047000.0,N
1634249155.6,286047003.8,N
1634249175.5,286047005.5,Y
1634249195.3,286047002.5,P
1634249215.1,286046999.7,N
1634249235.9,286047000.7,N
1634249255.7,286047000.6,N
1634249275.6,286046999.8,N
1634249295.4,286046999.7,N
1634249315.2,286046998.4,N
1634249335.1,286046997.6,N
1634249336.0,286046997.6,N
1634249355.8,286047000.7,N
1634249375.7,286047002.0,N
1634249395.5,286047000.0,N
1634249415.3,286047000.6,N
1634249435.2,286047002.8,N
1634249455.0,286046998.5,N
1634249455.9,286046998.5,N
1634249475.7,286047000.6,N
1634249495.6,286047000.1,N
1634249515.4,286046998.2,N
1634249535.3,286046998.3,N
1634249555.1,286046996.7,N
1634249575.8,286046998.9,N
1634249595.7,286046997.0,N
1634249615.5,286046997.1,N
1634249635.4,286046997.3,N
1634249655.2,286046997.4,N
1634249675.0,286046998.6,N
1634249675.9,286046998.6,N
1634249695.8,286047000.2,N
1634249715.6,286047000.4,N
1634249735.4,286047002.7,N
1634249755.3,286047002.8,N
1634249775.1,286046998.8,N
1634249795.9,286046997.5,N
1634249815.7,286046997.2,N
1634249835.5,286046999.6,N
1634249855.4,286047001.2,N
1634249875.2,286047000.4,N
1634249895.0,286047002.6,N
1634249895.9,286047002.6,N
1634249915.8,286047001.4,N
1634249935.6,286047001.8,N
1634249955.5,286047005.6,N
1634249975.3,286047005.8,N
1634249995.1,286047004.8,N
1634250015.9,286047004.3,N
1634250035.7,286046999.8,N
1634250055.5,286047000.1,N
1634250075.4,286047001.9,N
1634250095.2,286047002.8,N
1634250115.1,286046999.9,N
1634250116.0,286046999.9,N
1634250135.8,286047002.3,N
1634250155.6,286047002.6,N
1634250175.5,286047002.5,N
1634250195.3,286047002.6,N
1634250215.2,286046998.3,N
1634250235.9,286046998.7,N
1634250255.7,286046998.6,N
1634250275.6,286046999.1,N
1634250295.4,286046999.5,N
1634250315.2,286046998.4,N
1634250335.1,286047000.8,N
1634250336.0,286047000.8,N
1634250355.8,286047000.3,N
1634250375.7,286047002.5,N
1634250395.5,286047002.2,N
1634250415.3,286047002.5,N
1634250435.2,286047002.1,N
1634250455.0,286047002.7,N
1634250455.9,286047002.7,N
1634250475.8,286047002.1,N
1634250495.6,286047001.4,N
1634250515.4,286047002.3,N
1634250535.3,286047001.7,N
1634250555.1,286046999.7,N
1634250575.8,286047001.1,N
1634250595.7,286046998.6,N
1634250615.5,286047000.1,N
1634250635.4,286046999.8,N
1634250655.2,286047002.8,N
1634250675.0,286047000.8,N
1634250675.9,286047000.8,N
1634250695.8,286047000.4,N
1634250715.6,286046999.9,N
1634250735.4,286046999.8,N
1634250755.3,286046999.9,N
1634250775.1,286046999.9,N
1634250795.9,286047000.9,N
1634250815.7,286047000.8,N
1634250835.5,286047002.5,N
1634250855.4,286046998.1,N
1634250875.2,286046998.1,N
1634250895.1,286047000.8,N
1634250896.0,286047000.8,N
1634250915.8,286046999.8,N
1634250935.6,286046998.5,N
1634250955.5,286047000.4,N
1634250975.3,286047000.5,N
1634250995.1,286047000.4,N
1634251015.9,286047000.8,N
1634251035.7,286047002.6,N
1634251055.6,286047002.2,N
1634251075.4,286047003.8,Y
1634251095.2,286047001.6,P
1634251115.1,286047000.5,N
1634251116.0,286047000.5,N
1634251135.8,286046999.8,N
1634251155.6,286047000.0,N
1634251175.5,286047001.0,N
1634251195.3,286046999.9,N
1634251215.2,286047002.5,Y
1634251235.9,286047002.6,P
1634251255.7,286047002.4,N
1634251275.6,286047000.2,N
1634251295.4,286047002.2,N
1634251315.3,286047002.3,N
1634251335.1,286046999.7,N
1634251336.0,286046999.7,N
1634251355.8,286047001.8,N
1634251375.7,286047001.3,N
1634251395.5,286046999.8,N
1634251415.3,286046999.9,N
1634251435.2,286047000.2,N
1634251455.0,286047002.7,N
1634251455.9,286047002.7,N
1634251475.8,286047001.0,N
1634251495.6,286047002.1,N
1634251515.4,286047001.8,N
1634251535.3,286047004.3,Y
1634251555.1,286047001.5,P
1634251575.9,286047004.2,P
1634251595.7,286047003.6,N
1634251615.5,286047003.0,N
1634251635.4,286047003.7,Y
1634251655.2,286046998.4,P
1634251675.1,286046999.2,N
1634251676.0,286046999.2,N
1634251695.8,286046997.8,N
1634251715.6,286046996.8,N
1634251735.5,286046999.4,N
1634251755.3,286046998.0,N
1634251775.1,286046996.8,N
1634251795.9,286046997.8,N
1634251815.7,286046996.9,N
1634251835.6,286046996.9,N
1634251855.4,286046999.6,N
1634251875.2,286046996.9,N
1634251895.1,286046996.6,N
1634251896.0,286046996.6,N
1634251915.8,286046999.3,N
1634251935.7,286046998.3,N
1634251955.5,286046999.0,N
1634251975.3,286046998.0,N
1634251995.2,286046995.3,Y
1634252015.0,286046996.9,P
1634252015.9,286046996.9,P
1634252035.7,286046998.7,N
1634252055.6,286046998.3,N
1634252075.4,286047011.9,Y
1634252095.3,286047004.1,P
1634252115.1,286047002.5,N
1634252135.8,286047001.6,N
1634252155.7,286047001.7,N
1634252175.5,286047003.8,N
1634252195.4,286047001.5,N
1634252215.2,286047002.7,N
1634252235.0,286047001.5,N
1634252235.9,286047001.5,N
1634252255.8,286047005.6,Y
1634252275.6,286047004.2,P
1634252295.4,286047004.4,P
1634252315.3,286047002.0,N
1634252335.1,286047000.1,N
1634252355.9,286047002.6,N
1634252375.7,286047002.4,N
1634252395.5,286047001.7,N
